{"data":{"norad_id":67282,"intl_designator":"2025-313AL","name":"2025-313AL","alt_names":[],"object_type":"PAYLOAD","status":"ACTIVE","operator":null,"country":"TBD","launch_date":"2025-12-28","launch_site_code":"VOSTO","launch_vehicle":null,"mission":null,"orbit_class":"UNKNOWN","rcs_meters":null,"size_class":null,"mass_kg":null,"dimensions":null,"purposes":[],"wikipedia_slug":null,"has_3d_model":false,"image_url":null,"decayed_at":null,"tle_current":{"epoch":"2026-09-20T17:03:18.435456Z","epoch_age_seconds":84842,"freshness":"FRESH","line1":"1 67282U 25313AL  26263.71063004  .00003247  00000+0  13684-3 0  9999","line2":"2 67282  97.3849 336.9996 0011499  30.7019 329.4889 15.23986213 40508","mean_motion":15.23986213,"eccentricity":0.0011499,"inclination_deg":97.3849,"raan_deg":336.9996,"arg_perigee_deg":30.7019,"mean_anomaly_deg":329.4889,"bstar":0.00013684,"rev_number":4050,"period_min":94.489043779821,"perigee_km":485.92925214112,"apogee_km":501.73340490305,"semimajor_km":6871.9683285221,"source":"CELESTRAK","updated_at":"2026-09-21T09:00:16.547415Z"}}}